Regional Weather Roundup
Issued by NWS

Home | Current Version | Previous Version | Text Only | Print | Product List | Glossary Off
Versions: 1 2 3 4 5 6 7 8 9 10 11 12 13 14 15 16 17 18 19 20 21 22 23 24 25 26 27 28 29 30 31 32 33 34 35 36 37 38 39 40 41 42 43 44 45 46 47 48 49 50

000
ASUS43 KDMX 252203
RWRIA

WEATHER ROUNDUP FOR IOWA
NATIONAL WEATHER SERVICE DES MOINES IA
500 PM CDT MON JUL 25 2016

NOTE: "FAIR" INDICATES FEW OR NO CLOUDS BELOW 12,000 FEET WITH NO
SIGNIFICANT WEATHER AND/OR OBSTRUCTIONS TO VISIBILITY.

* - THESE STATIONS ARE NOT NWS STATIONS...THUS NOT UNDER NWS
QUALITY CONTROL.  THEY ALSO DO NOT REPORT WEATHER SUCH
AS PRECIPITATION OR FOG.

IAZ001>003-012>014-020>022-031>034-043>046-252300-
   NORTHWEST IOWA

CITY           SKY/WX    TMP DP  RH WIND       PRES   REMARKS
CARROLL *      SUNNY     84  64  51 NE6       30.07F HX  86
CHEROKEE *     SUNNY     86  62  45 S5        30.08S HX  86
DENISON *      SUNNY     84  64  51 CALM      30.05F HX  86
LE MARS *      SUNNY     86  64  48 S3        30.08F HX  87
SHELDON *      SUNNY     84  64  51 SW6       30.07F HX  86
SIOUX CITY     SUNNY     88  61  40 SE6       30.06F HX  88
SPENCER        SUNNY     85  59  41 SW5       30.08F HX  84
STORM LAKE *   SUNNY     84  61  45 CALM      30.09F HX  84
$$

IAZ055>058-069>071-079>083-090>094-252300-
   SOUTHWEST IOWA

CITY           SKY/WX    TMP DP  RH WIND       PRES   REMARKS
ATLANTIC *     SUNNY     84  66  54 NE9       30.06S HX  86
CLARINDA *       N/A     86  68  54 MISG      30.06S HX  89
COUNCIL BLFS * SUNNY     84  68  58 NE7       30.06F HX  87
CRESTON *      SUNNY     84  63  48 N13G18    30.07F HX  85
HARLAN  *      SUNNY     84  66  54 N3        30.10F HX  86
LAMONI         CLOUDY    85  68  56 N10       30.04F HX  88
RED OAK *      SUNNY     86  68  54 NE10      30.05F HX  89
SHENANDOAH *   SUNNY     84  72  65 NE9       30.05S HX  89
$$

IAZ047>049-059>061-072>074-084-252300-
   CENTRAL IOWA

CITY           SKY/WX    TMP DP  RH WIND       PRES   REMARKS
AMES           SUNNY     86  65  49 N10G21    30.04F HX  88
ANKENY *         N/A    N/A N/A N/A MISG        N/A
BOONE *        SUNNY     84  63  48 N12       30.05F HX  85
CHARITON *       N/A    N/A N/A N/A MISG        N/A
DES MOINES     MOSUNNY   88  62  41 N12       30.03F HX  88
GRINNELL*      SUNNY     83  62  48 N8        30.05S HX  83
KNOXVILLE *    SUNNY     84  63  48 N10       30.03S HX  85
MARSHALLTOWN   SUNNY     85  64  49 N13       30.03F HX  86
NEWTON *       SUNNY     84  63  48 N13       30.03F HX  85
PELLA *        SUNNY     85  63  47 N6        30.05S HX  86
PERRY *          N/A     85  64  49 N7        30.06F HX  86
$$

IAZ004>006-015-016-023>025-035-036-252300-
   NORTH CENTRAL IOWA

CITY           SKY/WX    TMP DP  RH WIND       PRES   REMARKS
ALGONA *       SUNNY     84  66  54 N5        30.08S HX  86
ESTHERVILLE    SUNNY     83  62  49 W3        30.08F HX  84
FORT DODGE *   SUNNY     84  64  51 CALM      30.08F HX  86
MASON CITY     SUNNY     83  62  49 N8        30.08F HX  84
FOREST CITY *    N/A     82  61  47 N9        30.08S HX  83
IOWA FALLS *     N/A     85  63  47 NW9       30.07F HX  86
$$

IAZ007>011-017>019-026>030-037>042-050>054-066-252300-
   NORTHEAST IOWA

CITY           SKY/WX    TMP DP  RH WIND       PRES   REMARKS
CEDAR RAPIDS   MOSUNNY   83  65  54 NW10      30.02F HX  85
CHARLES CITY * SUNNY     82  63  51 N8        30.06S HX  83
CLINTON *      SUNNY     84  66  54 N8        30.02S HX  86
DECORAH *      SUNNY     81  63  54 NW8       30.04S HX  82
DUBUQUE        SUNNY     82  63  52 N12       30.04S HX  83
MONTICELLO *   MOSUNNY   82  66  57 NW10      30.02S HX  85
OELWEIN *      SUNNY     81  66  61 NW8       30.05S HX  83
WATERLOO       SUNNY     84  63  49 N13       30.02F HX  85
$$

IAZ064-065-067-068-078-252300-
   EAST CENTRAL IOWA

CITY           SKY/WX    TMP DP  RH WIND       PRES   REMARKS
DAVENPORT      SUNNY     84  66  54 N8        30.02S HX  86
IOWA CITY      SUNNY     82  63  52 N9        30.03F HX  83
MT. PLEASANT * PTSUNNY   85  65  51 N9        30.02S HX  86
MUSCATINE *    CLOUDY    84  66  54 N9G15     30.01S HX  86
QUAD CITIES    MOSUNNY   86  64  47 N8        30.00S HX  87
$$

IAZ062-063-075>077-085>089-095>099-252300-
   SOUTHEAST IOWA

CITY           SKY/WX    TMP DP  RH WIND       PRES   REMARKS
BURLINGTON     PTSUNNY   83  69  62 N7        30.01F HX  86
FAIRFIELD *    SUNNY     82  64  54 N12       30.02F HX  84
KEOKUK *       CLOUDY    84  66  54 NE8       30.01S HX  86
OSKALOOSA *      N/A     82  66  57 N9        30.03F HX  84
CENTERVILLE *    N/A     84  66  54 N10       30.05S HX  86
OTTUMWA        SUNNY     84  64  50 N10       30.01F HX  85
WASHINGTON *   MOSUNNY   82  66  57 N12       30.03F HX  85
$$

ABBREVIATIONS USED IN REMARKS
   TC - TEMPERATURES IN CELSIUS
  WCI - WIND CHILL INDEX
   HX - HEAT INDEX
  VSB - VISIBILITY
$$





USA.gov is the U.S. government's official web portal to all federal, state and local government web resources and services.